Location: Unspecified
(0.0000°N, 0.0000°E)
Time: 07:07:01
(UTC+01:00)

Palapa 6 Rocket - Visible Passes

Search period start: 04 December 2016 00:00
Search period end: 14 December 2016 00:00
Orbit: 485 x 1221 km, 22.7° (Epoch: 03 December)

Date Brightness Start Highest point End Pass type
(mag) Time Alt. Az. Time Alt. Az. Time Alt. Az.
09 Dec 5.5 20:38:48 10° NNW 20:40:47 16° N 20:40:47 16° N visible
10 Dec 5.1 20:24:04 10° NNW 20:28:07 22° N 20:28:07 22° N visible
11 Dec 4.7 20:09:24 10° NW 20:14:47 26° NNE 20:15:33 26° NNE visible
12 Dec 4.7 19:54:45 10° NW 20:00:43 31° NNE 20:03:05 24° ENE visible
12 Dec 6.0 21:43:52 10° WNW 21:45:03 16° WNW 21:45:03 16° WNW visible
13 Dec 4.6 19:40:08 10° NW 19:46:36 36° NNE 19:50:43 17° ENE visible
13 Dec 5.2 21:29:28 10° WNW 21:32:41 30° WNW 21:32:41 30° WNW visible
